Weather in Zakan-Yurt

Russia / Chechen Republic     43°15′43″N   45°25′14″E
temp.,
°C
wind,
m/s
gust,
m/s
humid.,
%
clouds,
%
prec.,
mm/h
press.,
hPa
HPBL,
m
25 february, thu
thu2500:00−14ese11866 0.0 104026
03:00−15ene01853 0.0 103924
06:00−14e118581 0.0 1038103
09:00−11e227690 0.0 1037331
12:00−8e227172 0.0 1035386
15:00−5e127036 0.0 1033345
18:00−8ssw118040 0.0 103321
21:00−6sw118048 0.0 103322
26 february, fri
fri2600:00−1wsw2273100 0.0 103122
03:000ssw1177100 0.0 102922
06:000sw2279100 0.0 102822
09:00+2sw2385100 0.0 102767
12:00+5w2694100 0.0 1026333
15:00+6w258196 0.0 1024259
18:00+3sw227565 0.0 102522
21:00+2sw127682 0.0 102622
27 february, sat
sat2700:00+3sw117596 0.0 102422
03:00+3ssw117485 0.0 102322
06:00+2s117565 0.0 102222
09:00+5se117348 0.0 102132
12:00+9e13648 0.0 1019249
15:00+10e12674 0.0 1017486
18:00+5ssw22790 0.0 101722
21:00+4sw11850 0.0 101722
28 february, sun
sun2800:00+3ssw22810 0.0 101624
03:00+2ne00790 0.0 101522
06:00+2nnw117725 0.0 101422
09:00+5n126912 0.0 1014163
12:00+7nne237830 0.0 1013537
15:00+5nw249165 0.4 1014222
18:00+4nw3694100 0.4 1016301
21:00+4wnw3596100 1.9 1018254
1 march, mon
mon100:00+3nw3697100 1.3 1019358
03:00+3nw2495100 1.6 1020269
06:00+1wnw2497100 0.4 1022239
09:00+2wsw2496100 1.1 1023267
12:00+5wnw2368100 0.1 1024858
15:00+5n2362100 0.2 1024919
18:00+3nne1173100 0.1 102582
21:00+2sw229598 0.1 1027103